When you browse on this site, cookies collect data to enhance your experience and personalize the content and advertising you see.
Visit our Privacy Policy to learn more. By continuing to use the site, you agree to this use of cookies and data.
  • In Spain
  • List of Countries
  • For 7 days
  • Water Temperature
  • Satellite Maps
  • Weather Map
  • Weather Widgets
  • user-avatar
    Login

    Hourly Weather Makoterty

    Today, 23 March, Saturday

    Time Temperature Precipitation Wind Pressure Humidity
    00:00 +1°C° 0 mm 4 mps 752 mmHg 57%
    01:00 +1°C° 0 mm 4 mps 752 mmHg 58%
    02:00 +1°C° 0 mm 3 mps 752 mmHg 64%
    03:00 0°C° 0 mm 3 mps 752 mmHg 65%
    04:00 0°C° 0 mm 3 mps 752 mmHg 66%
    05:00 -1°C° 0 mm 3 mps 752 mmHg 67%
    06:00 0°C° 0 mm 3 mps 752 mmHg 64%
    07:00 0°C° 0 mm 3 mps 752 mmHg 61%
    08:00 +1°C° 0 mm 3 mps 752 mmHg 59%
    09:00 +1°C° 0 mm 4 mps 752 mmHg 52%
    10:00 +4°C° 0 mm 4 mps 752 mmHg 45%
    11:00 +5°C° 0 mm 4 mps 752 mmHg 38%
    12:00 +6°C° 0 mm 4 mps 752 mmHg 35%
    13:00 +7°C° 0 mm 4 mps 751 mmHg 31%
    14:00 +8°C° 0 mm 4 mps 751 mmHg 28%
    15:00 +9°C° 0 mm 3 mps 751 mmHg 28%
    16:00 +10°C° 0 mm 3 mps 750 mmHg 29%
    17:00 +10°C° 0 mm 3 mps 750 mmHg 29%
    18:00 +8°C° 0 mm 2 mps 750 mmHg 33%
    19:00 +7°C° 0 mm 2 mps 750 mmHg 37%
    20:00 +7°C° 0 mm 1 mps 750 mmHg 41%
    21:00 +6°C° 0 mm 1 mps 750 mmHg 42%
    22:00 +6°C° 0 mm 1 mps 749 mmHg 44%
    23:00 +5°C° 0 mm 1 mps 749 mmHg 45%

    Tomorrow, 24 March, Sunday

    Time Temperature Precipitation Wind Pressure Humidity
    00:00 +4°C° 0 mm 2 mps 749 mmHg 47%
    01:00 +4°C° 0 mm 2 mps 748 mmHg 48%
    02:00 +3°C° 0 mm 2 mps 748 mmHg 50%
    03:00 +2°C° 0 mm 3 mps 748 mmHg 51%
    04:00 +2°C° 0 mm 3 mps 747 mmHg 52%
    05:00 +2°C° 0 mm 3 mps 747 mmHg 53%
    06:00 +1°C° 0.2 mm 4 mps 746 mmHg 56%
    07:00 +3°C° 0.2 mm 4 mps 746 mmHg 58%
    08:00 +3°C° 0.2 mm 4 mps 746 mmHg 61%
    09:00 +4°C° 0.1 mm 4 mps 746 mmHg 66%
    10:00 +5°C° 0.1 mm 4 mps 746 mmHg 71%
    11:00 +7°C° 0.1 mm 4 mps 747 mmHg 76%
    12:00 +7°C° 0 mm 4 mps 746 mmHg 70%
    13:00 +8°C° 0 mm 4 mps 746 mmHg 64%
    14:00 +10°C° 0 mm 4 mps 746 mmHg 57%
    15:00 +10°C° 0 mm 4 mps 746 mmHg 56%
    16:00 +10°C° 0 mm 4 mps 746 mmHg 54%
    17:00 +10°C° 0 mm 4 mps 746 mmHg 52%
    18:00 +9°C° 0 mm 3 mps 746 mmHg 57%
    19:00 +7°C° 0 mm 2 mps 746 mmHg 61%
    20:00 +6°C° 0 mm 2 mps 746 mmHg 65%
    21:00 +6°C° 0 mm 1 mps 745 mmHg 67%
    22:00 +6°C° 0 mm 1 mps 745 mmHg 69%
    23:00 +5°C° 0 mm 1 mps 745 mmHg 70%

    Day after tomorrow, 25 March, Monday

    Time Temperature Precipitation Wind Pressure Humidity
    00:00 +5°C° 0 mm 1 mps 744 mmHg 71%
    01:00 +4°C° 0 mm 0 mps 744 mmHg 71%
    02:00 +3°C° 0 mm 0 mps 743 mmHg 72%
    03:00 +3°C° 0 mm 0 mps 743 mmHg 72%
    04:00 +3°C° 0 mm 0 mps 742 mmHg 72%
    05:00 +3°C° 0 mm 0 mps 742 mmHg 72%
    06:00 +4°C° 0 mm 0 mps 742 mmHg 71%
    07:00 +5°C° 0 mm 1 mps 741 mmHg 70%
    08:00 +5°C° 0 mm 1 mps 741 mmHg 68%
    09:00 +6°C° 0 mm 2 mps 741 mmHg 62%
    10:00 +7°C° 0 mm 2 mps 741 mmHg 56%
    11:00 +9°C° 0 mm 2 mps 741 mmHg 50%
    12:00 +9°C° 0 mm 2 mps 740 mmHg 48%
    13:00 +9°C° 0 mm 3 mps 740 mmHg 45%
    14:00 +10°C° 0 mm 3 mps 739 mmHg 43%
    15:00 +10°C° 0 mm 3 mps 739 mmHg 44%
    16:00 +10°C° 0 mm 3 mps 739 mmHg 44%
    17:00 +9°C° 0 mm 3 mps 738 mmHg 45%
    18:00 +8°C° 0 mm 3 mps 738 mmHg 49%
    19:00 +7°C° 0 mm 2 mps 738 mmHg 54%
    20:00 +7°C° 0 mm 1 mps 738 mmHg 58%
    21:00 +6°C° 0.1 mm 2 mps 738 mmHg 62%
    22:00 +5°C° 0.1 mm 2 mps 738 mmHg 67%
    23:00 +5°C° 0.1 mm 2 mps 739 mmHg 71%

    26 March, Tuesday

    Time Temperature Precipitation Wind Pressure Humidity
    00:00 +5°C° 0.1 mm 2 mps 739 mmHg 73%
    01:00 +4°C° 0.1 mm 2 mps 739 mmHg 75%
    02:00 +3°C° 0.1 mm 3 mps 740 mmHg 77%
    03:00 +3°C° 0 mm 3 mps 740 mmHg 77%
    04:00 +3°C° 0 mm 3 mps 740 mmHg 77%
    05:00 +2°C° 0 mm 3 mps 740 mmHg 78%
    06:00 +1°C° 0 mm 4 mps 741 mmHg 76%
    07:00 +2°C° 0 mm 5 mps 741 mmHg 75%
    08:00 +2°C° 0 mm 5 mps 742 mmHg 73%
    09:00 +3°C° 0 mm 6 mps 743 mmHg 69%
    10:00 +3°C° 0 mm 6 mps 743 mmHg 65%
    11:00 +4°C° 0 mm 7 mps 744 mmHg 61%
    12:00 +4°C° 0.1 mm 7 mps 744 mmHg 59%
    13:00 +3°C° 0.1 mm 7 mps 744 mmHg 58%
    14:00 +3°C° 0.1 mm 7 mps 744 mmHg 57%
    15:00 +3°C° 0 mm 7 mps 745 mmHg 50%
    16:00 +3°C° 0 mm 7 mps 745 mmHg 43%
    17:00 +4°C° 0 mm 7 mps 745 mmHg 37%
    18:00 +3°C° 0 mm 6 mps 746 mmHg 42%
    19:00 +3°C° 0 mm 4 mps 746 mmHg 48%
    20:00 +1°C° 0 mm 3 mps 746 mmHg 54%
    21:00 +1°C° 0 mm 3 mps 746 mmHg 56%
    22:00 +1°C° 0 mm 3 mps 746 mmHg 58%
    23:00 -1°C° 0 mm 4 mps 746 mmHg 61%

    27 March, Wednesday

    Time Temperature Precipitation Wind Pressure Humidity
    00:00 -1°C° 0 mm 4 mps 746 mmHg 61%
    01:00 -1°C° 0 mm 4 mps 746 mmHg 61%
    02:00 -1°C° 0 mm 5 mps 746 mmHg 61%
    03:00 -1°C° 0 mm 5 mps 746 mmHg 64%
    04:00 -1°C° 0 mm 5 mps 746 mmHg 68%
    05:00 -1°C° 0 mm 5 mps 746 mmHg 72%
    06:00 -1°C° 0 mm 5 mps 746 mmHg 72%
    07:00 -1°C° 0 mm 5 mps 747 mmHg 72%
    08:00 -2°C° 0 mm 6 mps 747 mmHg 72%
    09:00 0°C° 0 mm 5 mps 748 mmHg 63%
    10:00 +1°C° 0 mm 5 mps 748 mmHg 54%
    11:00 +1°C° 0 mm 5 mps 748 mmHg 45%
    12:00 +2°C° 0 mm 5 mps 749 mmHg 42%
    13:00 +3°C° 0 mm 5 mps 749 mmHg 39%
    14:00 +5°C° 0 mm 5 mps 749 mmHg 35%
    15:00 +5°C° 0 mm 5 mps 749 mmHg 35%
    16:00 +5°C° 0 mm 5 mps 749 mmHg 34%
    17:00 +5°C° 0 mm 4 mps 749 mmHg 34%
    18:00 +4°C° 0 mm 3 mps 750 mmHg 39%
    19:00 +4°C° 0 mm 2 mps 750 mmHg 44%
    20:00 +3°C° 0 mm 1 mps 751 mmHg 48%
    21:00 +4°C° 0 mm 1 mps 751 mmHg 49%
    22:00 +3°C° 0 mm 0 mps 751 mmHg 49%
    23:00 +3°C° 0 mm 0 mps 752 mmHg 50%

    28 March, Thursday

    Time Temperature Precipitation Wind Pressure Humidity
    00:00 +3°C° 0.1 mm 0 mps 752 mmHg 50%
    01:00 +3°C° 0.1 mm 0 mps 752 mmHg 51%
    02:00 +4°C° 0.1 mm 1 mps 752 mmHg 52%
    03:00 +4°C° 0 mm 1 mps 752 mmHg 54%
    04:00 +4°C° 0 mm 1 mps 753 mmHg 56%
    05:00 +3°C° 0 mm 1 mps 753 mmHg 58%
    06:00 +4°C° 0 mm 1 mps 753 mmHg 58%
    07:00 +4°C° 0 mm 1 mps 753 mmHg 57%
    08:00 +4°C° 0 mm 0 mps 754 mmHg 57%
    09:00 +5°C° 0 mm 0 mps 754 mmHg 54%
    10:00 +6°C° 0 mm 0 mps 754 mmHg 52%
    11:00 +8°C° 0 mm 0 mps 754 mmHg 50%
    12:00 +9°C° 0 mm 1 mps 754 mmHg 49%
    13:00 +9°C° 0 mm 1 mps 754 mmHg 47%
    14:00 +9°C° 0 mm 2 mps 754 mmHg 46%
    15:00 +9°C° 0 mm 2 mps 754 mmHg 46%
    16:00 +9°C° 0 mm 2 mps 754 mmHg 46%
    17:00 +9°C° 0 mm 2 mps 754 mmHg 46%
    18:00 +8°C° 0 mm 2 mps 754 mmHg 51%
    19:00 +7°C° 0 mm 2 mps 754 mmHg 56%
    20:00 +6°C° 0 mm 2 mps 754 mmHg 61%
    21:00 +7°C° 0 mm 1 mps 755 mmHg 62%
    22:00 +7°C° 0 mm 1 mps 755 mmHg 63%
    23:00 +7°C° 0 mm 1 mps 755 mmHg 64%
    Show more